Tracking 35030 objects as of 11-Aug-2026
HD Live streaming from Space Station
objects crossing your sky now

STARLINK-4163


STARLINK-4163 is no longer on orbit
STARLINK-4163 is classified as:


NORAD ID: 53279
Int'l Code: 2022-086AP
Launch date: July 24, 2022
Source: United States (US)
Launch site: AIR FORCE EASTERN TEST RANGE (AFETR)
Decay date: 2022-07-31
Your satellite tracking list
Your tracking list is empty




NASA's NSSDC Master Catalog

Two Line Element Set (TLE):
1 53279U 22086AP  22212.04503649  .17858999  12490-4  15365-2 0  9992
2 53279  53.2096  10.4342 0013059  30.3480  75.7288 16.38282050  1668
Source of the keplerian elements: AFSPC